This demonstration page uses our WeatherBlox Daily Observations layout. Learn more.

Hourly Observations for January 16, 2017

Temp ( °F °C ) Dew Point ( °F °C ) Humidity (%) Winds ( mph kmh ) Pressure ( in mb ) Visibility ( mi km ) Precip ( " mm )
12:54 am 00:54 Cloudy with Mist and Fog 32 0 31 -0.6 96 96 ENE 6 9 30.15 1021 6 9.65604 0 0
1:01 am 01:01 Cloudy 32 0 31 -0.6 96 96 E 5 7 30.18 1022 7 11.26538 0 0
1:54 am 01:54 Cloudy with Mist and Fog 32 0 31 -0.6 96 96 ENE 7 11 30.13 1020 3 4.82802 0 0
2:14 am 02:14 Cloudy with Mist and Fog 32 0 30 -1 93 93 NE 7 11 30.15 1021 2 3.21868 0 0
2:21 am 02:21 Cloudy with Light Freezing Rain 32 0 31 -0.6 96 96 NE 7 11 30.15 1021 1.75 2.816345 0 0.0254
2:39 am 02:39 Cloudy with Light Freezing Rain 32 0 31 -0.6 96 96 NE 8 13 30.15 1021 2 3.21868 0 0.0254
2:54 am 02:54 Cloudy with Light Freezing Rain 32 0 31 -0.6 96 96 NE 8 13 30.11 1020 2 3.21868 0 0.0254
3:19 am 03:19 Cloudy with Mist and Fog 32 0 30 -1 93 93 ENE 9 15 30.15 1021 3 4.82802 0 0
3:36 am 03:36 Cloudy with Light Freezing Rain 32 0 30 -1 93 93 NE 9 15 30.15 1021 3 4.82802 0 0
3:44 am 03:44 Cloudy with Freezing Rain 32 0 30 -1 93 93 NE 9 15 30.12 1020 3 4.82802 0 0
3:51 am 03:51 Cloudy with Light Freezing Rain 32 0 30 -1 93 93 NE 10 17 30.12 1020 3 4.82802 0 0
3:54 am 03:54 Cloudy with Light Freezing Rain 32 0 31 -0.6 96 96 NE 12 19 30.09 1019 4 6.43736 0.03 0.762
4:09 am 04:09 Cloudy with Light Freezing Rain 32 0 31 -0.6 96 96 NE 10 17 30.12 1020 2.5 4.02335 0.01 0.254
4:15 am 04:15 Cloudy with Light Wintry Mix 32 0 30 -1 93 93 NE 13 20 30.12 1020 3 4.82802 0 0
4:54 am 04:54 Cloudy with Light Wintry Mix 32 0 31 -0.6 96 96 NE 12 19 30.06 1018 5 8.0467 0.02 0.508
5:02 am 05:02 Cloudy with Light Wintry Mix 32 0 31 -0.6 96 96 NE 13 20 30.09 1019 5 8.0467 0 0.0254
5:54 am 05:54 Cloudy with Mist and Fog 32 0 31 -0.6 96 96 NE 14 22 30.03 1017 5 8.0467 0 0.0254
6:02 am 06:02 Cloudy with Light Freezing Rain 32 0 31 -0.6 96 96 NE 13 20 30.06 1018 4 6.43736 0 0.0254
6:28 am 06:28 Cloudy with Mist and Fog 32 0 30 -1 93 93 NE 15 24 30.03 1017 4 6.43736 0 0
6:35 am 06:35 Cloudy with Light Freezing Rain 32 0 31 -0.6 96 96 NE 13 20 30.03 1017 3 4.82802 0.01 0.254
6:54 am 06:54 Cloudy with Light Freezing Rain 32 0 31 -0.6 96 96 NE 12 19 30.01 1016 4 6.43736 0.02 0.508
7:54 am 07:54 Cloudy with Light Wintry Mix 32 0 32 0 100 100 ENE 10 17 30.01 1016 3 4.82802 0.06 1.524
7:56 am 07:56 Cloudy with Light Rain 34 1 32 0 93 93 ENE 10 17 30.03 1017 3 4.82802 0 0
8:13 am 08:13 Cloudy with Light Rain 33 0.6 32 0 96 96 ENE 10 17 30.03 1017 3 4.82802 0.02 0.508
8:54 am 08:54 Cloudy with Light Rain 33 0.6 31 -0.6 92 92 NE 13 20 29.99 1016 3 4.82802 0.1 2.54
9:06 am 09:06 Cloudy with Light Rain 34 1 30 -1 87 87 NE 14 22 30.03 1017 2.5 4.02335 0 0
9:23 am 09:23 Cloudy with Light Rain 33 0.6 32 0 96 96 NE 13 20 30 1016 3 4.82802 0.08 2.032
9:54 am 09:54 Cloudy with Rain 33 0.6 31 -0.6 92 92 NE 13 20 29.99 1016 3 4.82802 0.18 4.572
10:54 am 10:54 Cloudy with Rain 33 0.6 32 0 96 96 NNE 9 15 29.99 1016 3 4.82802 0.14 3.556
11:54 am 11:54 Cloudy with Light Rain 33 0.6 32 0 96 96 NNE 10 17 29.96 1015 4 6.43736 0.01 0.254
12:42 pm 12:42 Cloudy with Mist and Fog 34 1 32 0 93 93 NNE 10 17 29.97 1015 2.5 4.02335 0 0
12:47 pm 12:47 Cloudy with Mist and Fog 34 1 32 0 93 93 NNE 10 17 29.97 1015 3 4.82802 0 0
12:54 pm 12:54 Cloudy with Mist and Fog 33 0.6 32 0 96 96 NNE 10 17 29.94 1014 4 6.43736 0 0.0254
1:33 pm 13:33 Cloudy with Mist and Fog 33 0.6 32 0 96 96 N 12 19 29.94 1014 5 8.0467 0.01 0.254
1:54 pm 13:54 Cloudy with Light Rain 33 0.6 32 0 96 96 N 12 19 29.92 1013 4 6.43736 0.01 0.254
2:04 pm 14:04 Cloudy with Rain 34 1 32 0 93 93 N 13 20 29.94 1014 2.5 4.02335 0 0
2:14 pm 14:14 Cloudy with Light Rain 34 1 32 0 93 93 N 12 19 29.94 1014 4 6.43736 0 0
2:54 pm 14:54 Cloudy with Mist and Fog 33 0.6 32 0 96 96 N 10 17 29.93 1013 6 9.65604 0.01 0.254
3:54 pm 15:54 Cloudy 33 0.6 32 0 96 96 N 15 24 29.93 1014 10 16.0934 0 0
4:54 pm 16:54 Cloudy 33 0.6 32 0 96 96 N 15 24 29.95 1014 8 12.87472 0 0
5:54 pm 17:54 Cloudy 33 0.6 32 0 96 96 N 14 22 29.96 1015 7 11.26538 0 0
6:54 pm 18:54 Cloudy with Light Rain 33 0.6 32 0 96 96 N 13 20 29.99 1016 3 4.82802 0 0.0254
7:03 pm 19:03 Cloudy with Light Snow 34 1 32 0 93 93 N 14 22 30.03 1017 2.5 4.02335 0 0
7:12 pm 19:12 Cloudy with Mist and Fog 33 0.6 32 0 96 96 N 14 22 30.03 1017 4 6.43736 0.01 0.254
7:42 pm 19:42 Cloudy with Light Rain 34 1 32 0 93 93 N 13 20 30.03 1017 2.5 4.02335 0 0
7:54 pm 19:54 Cloudy with Light Rain 33 0.6 32 0 96 96 NNW 14 22 30.01 1016 3 4.82802 0.01 0.254
8:54 pm 20:54 Cloudy with Mist and Fog 33 0.6 32 0 96 96 N 10 17 30.01 1016 4 6.43736 0 0.0254
9:54 pm 21:54 Cloudy with Mist and Fog 33 0.6 32 0 96 96 NW 8 13 30.03 1017 3 4.82802 0 0
10:27 pm 22:27 Cloudy with Light Rain 33 0.6 32 0 96 96 NNW 8 13 30.06 1018 3 4.82802 0 0.0254
10:54 pm 22:54 Cloudy with Light Rain 33 0.6 32 0 96 96 NNW 10 17 30.02 1017 4 6.43736 0.01 0.254
11:09 pm 23:09 Cloudy with Mist and Fog 34 1 32 0 93 93 NNW 8 13 30.06 1018 5 8.0467 0 0
11:54 pm 23:54 Cloudy 33 0.6 30 -1.1 89 89 NNW 13 20 30.03 1017 8 12.87472 0 0.0254

Powered by AerisWeather